Regional Weather Roundup
Issued by NWS

Home | Current Version | Previous Version | Text Only | Print | Product List | Glossary Off
Versions: 1 2 3 4 5 6 7 8 9 10 11 12 13 14 15 16 17 18 19 20 21 22 23 24 25 26 27 28 29 30 31 32 33 34 35 36 37 38 39 40 41 42 43 44 45 46 47 48 49 50

999
ASUS45 KCYS 111710
RWRWY

WYOMING REGIONAL WEATHER ROUNDUP
NATIONAL WEATHER SERVICE CHEYENNE WY
1000 AM MST THU FEB 11 2016

NOTE:  "FAIR" INDICATES FEW OR NO CLOUDS BELOW 12,000 FEET
WITH NO SIGNIFICANT WEATHER AND/OR OBSTRUCTIONS TO VISIBILITY.

WYZ001-111800-
YELLOWSTONE NATIONAL PARK

CITY           SKY/WX    TMP DP  RH WIND       PRES   REMARKS
LK YELLOWSTONE   N/A     30  19  63 E3        30.36S
W YELLOWSTONE  NOT AVBL

$$
WYZ002>013-054>058-071-098>099-111800-
NORTHERN WYOMING

CITY           SKY/WX    TMP DP  RH WIND       PRES   REMARKS
JACKSON        SUNNY     18  14  86 CALM      30.39R
CODY           FAIR      50  19  29 N6G16     30.18R
GREYBULL       FAIR      39  28  64 CALM      30.17R
WORLAND        FAIR      37  29  72 S3        30.16R
SHERIDAN       FAIR      53  27  36 NW26G37   30.14R
BUFFALO        FAIR      48  26  42 N22G36    30.13R
GILLETTE       FAIR      49  27  42 NW20G31   30.10R
HULETT         FAIR      48  28  46 NW12G30   30.08R
NEWCASTLE      FAIR      46  23  39 NW20G26   30.08R

$$
WYZ014>020-022>026-101>103-111800-
CENTRAL WYOMING

CITY           SKY/WX    TMP DP  RH WIND       PRES   REMARKS
BIG PINEY      FAIR      24  17  74 SW3       30.36R
PINEDALE       FAIR      27  18  69 CALM      30.35S
DUBOIS         FAIR      45  18  33 NW31G37   30.21S
LANDER         FAIR      39  20  46 VRB3      30.17R
RIVERTON       FAIR      38  21  50 CALM      30.18R
CASPER         FAIR      40  22  48 S22G28    30.18R WCI  30
DOUGLAS        FAIR      46  24  42 NW15G28     N/A

$$
WYZ021-027>030-104>119-111800-
SOUTHERN WYOMING

CITY           SKY/WX    TMP DP  RH WIND       PRES   REMARKS
EVANSTON       FAIR      28  13  53 SW10      30.39R WCI  19
FORT BRIDGER   SUNNY     39  21  48 W23       30.39R WCI  29
ROCK SPRINGS   FAIR      38  17  42 W7        30.37R WCI  33
DIXON          FAIR      21  13  71 CALM      30.41R
RAWLINS        FAIR      34  20  56 W21G30    30.28R WCI  22
SARATOGA       FAIR      37  21  52 SW7       30.32R WCI  32
LARAMIE        FAIR      43  18  36 S8        30.22R
CHEYENNE       FAIR      49  17  28 W24G36    30.14R
TORRINGTON     FAIR      53  21  28 NW12G22   30.10R
PINE BLUFFS    FAIR      50  23  34 W15G22    30.13S

$$




USA.gov is the U.S. government's official web portal to all federal, state and local government web resources and services.